Location: Newark
(23.1300°N, 73.6109°E)
Time: 16:48:59
(UTC+00:00)

AO-7 - Pass Details

Date: 11 July 2020
Orbit: 1440 x 1458 km, 101.8° (Epoch: 05 August)

Event Time Altitude Azimuth Distance (km) Brightness Sun altitude
Rises 21:54:19 0° 28° (NNE) 4,562 ? -29.9°
Reaches altitude 10° 21:57:25 10° 37° (NE) 3,582 ? -29.4°
Maximum altitude 22:04:59 38° 102° (ESE) 2,099 ? -28.2°
Enters shadow 22:11:49 13° 164° (SSE) 3,359 ? -27.1°
